Location: Glass Lake
(42.6301°N, 73.5309°W)
Time: 08:53:17
(UTC+00:00)

ACS3 Solar Sail - Visible Passes

Search period start: 11 October 2024 00:00
Search period end: 21 October 2024 00:00
Orbit: 960 x 1036 km, 97.4° (Epoch: 10 October)

Date Brightness Start Highest point End Pass type
(mag) Time Alt. Az. Time Alt. Az. Time Alt. Az.
11 Oct 1.8 00:27:58 49° SE 00:29:26 63° ENE 00:35:42 10° N visible
11 Oct 3.8 02:13:07 22° W 02:13:46 22° W 02:18:34 10° NW visible
11 Oct 3.2 23:14:50 14° E 23:17:44 19° ENE 23:22:00 10° NNE visible
12 Oct 1.9 00:59:59 65° SSW 01:00:56 77° W 01:07:18 10° NNW visible
12 Oct 4.4 02:45:08 11° W 02:45:47 11° W 02:47:44 10° WNW visible
12 Oct 2.5 23:46:51 27° E 23:48:52 33° ENE 23:54:21 10° N visible
13 Oct 2.7 01:32:00 43° WSW 01:32:34 44° W 01:38:35 10° NNW visible
14 Oct 1.9 00:18:52 48° ESE 00:20:08 56° ENE 00:26:17 10° N visible
14 Oct 3.6 02:04:01 25° W 02:04:20 25° W 02:09:25 10° NW visible
14 Oct 3.3 23:05:43 13° E 23:08:28 17° ENE 23:12:21 10° NNE visible
15 Oct 1.8 00:50:51 72° S 00:51:34 86° WSW 00:57:55 10° NNW visible
15 Oct 4.3 02:36:00 13° W 02:36:17 13° W 02:39:10 10° WNW visible
15 Oct 2.7 23:37:42 25° E 23:39:32 29° ENE 23:44:49 10° N visible
16 Oct 2.5 01:22:51 49° WSW 01:23:08 49° W 01:29:15 10° NNW visible
17 Oct 2.0 00:09:41 45° E 00:10:45 49° ENE 00:16:46 10° N visible
17 Oct 3.5 01:54:49 28° W 01:54:51 28° W 02:00:11 10° NW visible
17 Oct 3.4 22:56:31 12° E 22:59:08 15° ENE 23:02:31 10° NNE visible
18 Oct 1.7 00:41:39 77° SE 00:42:07 85° ENE 00:48:26 10° N visible
18 Oct 4.2 02:26:47 15° W 02:26:47 15° W 02:30:15 10° NW visible
18 Oct 2.8 23:28:28 23° E 23:30:08 26° ENE 23:35:08 10° N visible
19 Oct 2.3 01:13:36 56° W 01:13:38 56° W 01:19:48 10° NNW visible
20 Oct 2.1 00:00:25 41° E 00:01:18 44° ENE 00:07:10 10° N visible
20 Oct 3.3 01:45:34 31° W 01:45:34 31° W 01:50:48 10° NNW visible
20 Oct 3.5 22:47:13 11° E 22:49:44 13° ENE 22:52:30 10° NNE visible
